Meteopurmerend
purmerend
Purmerend - Baaienwijk



My webcam  My webcam


Onweer radar Meer informatie blitzortung!


Regen radar Meer informatie rain snow radar


Bezoek onze andere website:

CandyAppleRed WebdesignWebdesign Purmerend Candy Apple Red

MeteopurmerendBlog

Template documentation
and downloads



We konden geen weer-waarchuwingen ophalen. Ga rechtstreeks naar de Meteoalarm site : www.meteoalarm.eu en controleer daar .

15 daagse weersverwachting 's-Hertogenbosch (NL)

  • Overzicht
  • Per uur
  • 15 dagen
  • Extra
  • Vergelijk
  • Kaarten
  • Dagkaart
  • Meer »
  • Info
  • Statistieken
  • Directe link
    Temp 6h Neerslag Wind  
 06:00     21:32    Daglengte: 15:32 Vandaag
14:00
19°
 
7
20:00
19°
 
5
 06:01     21:30    Daglengte: 15:29 Morgen
02:00
14°
 
3
08:00
15°
 
2
14:00
22°
 
6
20:00
20°
 
5
 06:03     21:28    Daglengte: 15:25 Zaterdag 31 Jul
02:00
16°
 
6
08:00
15°
 
6
14:00
18°
2.2 mm
6
20:00
19°
0.9 mm
5
 06:04     21:27    Daglengte: 15:23 Zondag 01 Aug
02:00
14°
 
3
08:00
15°
 
3
Locatie info
Region: Noord-Brabant
Latitude: 51.6992°N
Longitude: 5.3042°E
7 masl
Temp/Neerslag /Baro Onweer/Dauwpunt
    Temp Baro 1h Neerslag Dauwpunt Wind UV Bewolking  
 06:00     21:32    Daglengte: 15:32 Vandaag
12:00
18°
1010.8 hPa   10.8°
7
Windvlaag: 8.5 m/s
13%
13:00
18°
1010.9 hPa   10.7°
7
Windvlaag: 8.4 m/s
15%
14:00
19°
1011.1 hPa   11.0°
7
Windvlaag: 8.7 m/s
12%
15:00
20°
1010.9 hPa   10.8°
7
Windvlaag: 7.8 m/s
40%
16:00
20°
1010.9 hPa   11.1°
7
Windvlaag: 6.7 m/s
32%
17:00
20°
1010.9 hPa   11.1°
7
Windvlaag: 6.4 m/s
51%
18:00
19°
1011.1 hPa   10.3°
6
Windvlaag: 6.9 m/s
28%
19:00
20°
1011.1 hPa   10.0°
5
Windvlaag: 5.6 m/s
15%
20:00
19°
1011.0 hPa   10.3°
5
Windvlaag: 3.5 m/s
18%
21:00
18°
1011.0 hPa   11.5°
3
Windvlaag: 3.8 m/s
16%
22:00
17°
1011.2 hPa   11.8°
3
Windvlaag: 4.7 m/s
34%
23:00
16°
1011.2 hPa   12.0°
3
Windvlaag: 4.5 m/s
56%
 06:01     21:30    Daglengte: 15:29 Morgen
00:00
15°
1011.0 hPa   11.6°
3
Windvlaag: 5.1 m/s
46%
01:00
14°
1010.9 hPa   11.1°
3
Windvlaag: 5.3 m/s
13%
02:00
14°
1010.7 hPa   11.3°
3
Windvlaag: 5.6 m/s
2%
03:00
13°
1010.5 hPa   11.1°
3
Windvlaag: 5.7 m/s
6%
04:00
13°
1010.2 hPa   10.9°
3
Windvlaag: 5.6 m/s
12%
05:00
13°
1009.7 hPa   10.9°
3
Windvlaag: 5.4 m/s
41%
06:00
13°
1009.6 hPa   11.4°
3
Windvlaag: 5.6 m/s
75%
07:00
13°
1009.4 hPa   11.9°
3
Windvlaag: 5.5 m/s
78%
08:00
15°
1009.2 hPa   12.0°
2
Windvlaag: 4.7 m/s
86%
09:00
15°
1008.8 hPa   12.1°
2
Windvlaag: 3.8 m/s
85%
10:00
17°
1008.6 hPa   13.4°
3
Windvlaag: 4.3 m/s
85%
11:00
18°
1008.0 hPa   15.5°
4
Windvlaag: 6.6 m/s
84%
12:00
20°
1007.6 hPa   17.0°
4
Windvlaag: 9.3 m/s
82%
13:00
21°
1006.7 hPa   18.0°
5
Windvlaag: 10.7 m/s
74%
14:00
22°
1006.1 hPa   18.5°
6
Windvlaag: 10.5 m/s
47%
15:00
21°
1005.8 hPa   17.6°
5
Windvlaag: 10 m/s
59%
16:00
21°
1005.5 hPa
17%
17.2°
4
Windvlaag: 9.7 m/s
24%
17:00
22°
1004.9 hPa   18.2°
6
Windvlaag: 9.9 m/s
12%
18:00
21°
1004.7 hPa   17.9°
5
Windvlaag: 10 m/s
36%
19:00
20°
1004.7 hPa
14%
18.3°
5
Windvlaag: 8.4 m/s
9%
20:00
20°
1004.7 hPa
14%
17.9°
5
Windvlaag: 10.6 m/s
23%
21:00
18°
1004.7 hPa
14%
16.7°
5
Windvlaag: 11.1 m/s
19%
22:00
18°
1005.0 hPa
14%
15.8°
5
Windvlaag: 12.7 m/s
21%
23:00
17°
1005.1 hPa
14%
15.0°
6
Windvlaag: 12.4 m/s
13%
 06:03     21:28    Daglengte: 15:25 Zaterdag 31 Jul
00:00
17°
1005.2 hPa
14%
14.8°
6
Windvlaag: 10.5 m/s
29%
01:00
16°
1005.1 hPa
14%
13.9°
6
Windvlaag: 10.5 m/s
16%
02:00
16°
1005.3 hPa
14%
13.6°
6
Windvlaag: 6.7 m/s
14%
03:00
15°
1005.7 hPa
15%
13.7°
6
Windvlaag: 5.5 m/s
48%
04:00
15°
1006.0 hPa
15%
13.8°
5
Windvlaag: 5.3 m/s
68%
05:00
15°
1005.1 hPa
23%
12.7°
6
Windvlaag: 4.7 m/s
78%
06:00
15°
1005.4 hPa
29%
12.3°
7
Windvlaag: 7.7 m/s
80%
07:00
15°
1005.8 hPa
27%
12.6°
6
Windvlaag: 8 m/s
70%
08:00
15°
1006.1 hPa
21%
13.2°
6
Windvlaag: 7.9 m/s
67%
09:00
16°
1006.5 hPa
21%
13.2°
7
Windvlaag: 7.5 m/s
71%
10:00
17°
1006.7 hPa
21%
13.1°
7
Windvlaag: 7.3 m/s
64%
11:00
17°
1006.9 hPa 0.7 mm
23%
14.4°
7
Windvlaag: 6.1 m/s
67%
12:00
18°
1007.3 hPa 0.8 mm
89%
14.4°
6
Windvlaag: 6.2 m/s
72%
13:00
18°
1007.5 hPa 0.8 mm
99%
13.1°
7
Windvlaag: 5.9 m/s
85%
14:00
18°
1007.6 hPa
99%
13.5°
6
Windvlaag: 5.5 m/s
70%
15:00
19°
1007.6 hPa 0.9 mm
97%
13.1°
6
Windvlaag: 3 m/s
63%
16:00
19°
1007.8 hPa
95%
13.6°
6
Windvlaag: 3.1 m/s
55%
17:00
20°
1007.7 hPa
95%
12.5°
6
Windvlaag: 3.1 m/s
44%
18:00
19°
1007.7 hPa
49%
11.6°
6
Windvlaag: 2.3 m/s
43%
19:00
19°
1007.6 hPa
22%
11.5°
5
Windvlaag: 2.1 m/s
54%
20:00
19°
1007.7 hPa
22%
12.6°
5
Windvlaag: 2.5 m/s
66%
21:00
18°
1007.9 hPa
62%
13.7°
4
Windvlaag: 2.4 m/s
27%
22:00
16°
1008.2 hPa
21%
13.9°
3
Windvlaag: 2.3 m/s
34%
23:00
16°
1008.3 hPa
22%
13.4°
3
Windvlaag: 3.3 m/s
32%
 06:04     21:27    Daglengte: 15:23 Zondag 01 Aug
00:00
15°
1008.4 hPa
23%
13.4°
2
Windvlaag: 3.7 m/s
30%
01:00
15°
1008.4 hPa
21%
13.3°
2
Windvlaag: 4.4 m/s
19%
02:00
14°
1008.0 hPa
21%
13.5°
3
Windvlaag: 4.6 m/s
22%
03:00
15°
1007.6 hPa
22%
13.0°
3
Windvlaag: 8.3 m/s
66%
04:00
15°
1007.6 hPa
22%
13.2°
2
Windvlaag: 5.7 m/s
70%
05:00
15°
1007.4 hPa
21%
13.3°
3
Windvlaag: 5.1 m/s
70%
06:00
15°
1007.4 hPa
21%
13.2°
3
Windvlaag: 7.5 m/s
66%
07:00
15°
1007.4 hPa
22%
13.5°
2
Windvlaag: 6.7 m/s
70%
08:00
15°
1007.7 hPa
21%
14.6°
3
Windvlaag: 6.5 m/s
76%
09:00
14°
1006.6 hPa 14.8 mm
100%
13.8°
2
Windvlaag: 3.9 m/s
100%
10:00
14°
1007.4 hPa 22.7 mm
100%
13.9°
2
Windvlaag: 2.9 m/s
100%
11:00
15°
1007.5 hPa 25.3 mm
100%
14.6°
2
Windvlaag: 6 m/s
100%
Temp/Neerslag /Baro Onweer/Dauwpunt
    Temp Baro Neerslag Dauwpunt Wind Bewolking  
 06:00     21:32    Daglengte: 15:32 Vandaag
14:00
19°
1011.1 hPa   11.0°
7
12%
17:00
20°
1010.9 hPa   11.1°
7
51%
20:00
19°
1011.0 hPa   10.3°
5
18%
23:00
16°
1011.2 hPa   12.0°
3
56%
 06:01     21:30    Daglengte: 15:29 Morgen
02:00
14°
1010.7 hPa   11.3°
3
2%
05:00
13°
1009.7 hPa   10.9°
3
41%
08:00
15°
1009.2 hPa   12.0°
2
86%
11:00
18°
1008.0 hPa   15.5°
4
84%
14:00
22°
1006.1 hPa   18.5°
6
47%
17:00
22°
1004.9 hPa   18.2°
6
12%
20:00
20°
1004.7 hPa   17.9°
5
23%
23:00
17°
1005.1 hPa   15.0°
6
13%
 06:03     21:28    Daglengte: 15:25 Zaterdag 31 Jul
02:00
16°
1005.3 hPa   13.6°
6
14%
05:00
15°
1005.1 hPa   12.7°
6
78%
08:00
15°
1006.1 hPa   13.2°
6
67%
11:00
17°
1006.9 hPa 0.7 mm 14.4°
7
67%
14:00
18°
1007.6 hPa 1.5 mm 13.5°
6
70%
17:00
20°
1007.7 hPa 0.9 mm 12.5°
6
44%
20:00
19°
1007.7 hPa   12.6°
5
66%
23:00
16°
1008.3 hPa   13.4°
3
32%
 06:04     21:27    Daglengte: 15:23 Zondag 01 Aug
02:00
14°
1008.0 hPa   13.5°
3
22%
05:00
15°
1007.4 hPa   13.3°
3
70%
08:00
15°
1007.7 hPa   14.6°
3
76%
11:00
15°
1007.5 hPa 62.8 mm 14.6°
2
100%
14:00
18°
1008.0 hPa 85.6 mm 14.0°
4
96%
17:00
19°
1010.1 hPa 11.2 mm 15.0°
2
1%
20:00
18°
1010.0 hPa 13.7 mm 15.2°
2
1%
23:00
14°
1011.1 hPa 14.0 mm 12.7°
2
0%
 06:06     21:25    Daglengte: 15:19 Maandag 02 Aug
02:00
13°
1011.5 hPa 14.0 mm 11.8°
2
0%
05:00
12°
1011.9 hPa 14.0 mm 11.4°
1
0%
08:00
14°
1012.8 hPa 14.1 mm 13.0°
1
0%
11:00
15°
1013.7 hPa 14.8 mm 14.3°
2
1%
14:00
19°
1013.3 hPa 15.2 mm 13.7°
1
1%
17:00
19°
1013.2 hPa 18.9 mm 14.0°
1
1%
20:00
17°
1013.3 hPa 21.9 mm 14.9°
2
1%
23:00
13°
1014.6 hPa 22.0 mm 11.4°
3
0%
 06:07     21:23    Daglengte: 15:16 Dinsdag 03 Aug
02:00
13°
1015.0 hPa 22.0 mm 11.4°
2
1%
05:00
13°
1015.2 hPa 22.0 mm 10.9°
2
1%
08:00
14°
1015.9 hPa 22.0 mm 11.9°
1
1%
11:00
17°
1016.2 hPa 22.0 mm 12.6°
2
0%
14:00
20°
1015.5 hPa 22.1 mm 11.7°
2
0%
17:00
21°
1014.7 hPa 22.2 mm 11.9°
3
0%
20:00
17°
1015.3 hPa 22.4 mm 13.6°
4
0%
23:00
13°
1016.5 hPa 22.4 mm 11.2°
3
0%
 06:09     21:22    Daglengte: 15:13 Woensdag 04 Aug
02:00
12°
1016.9 hPa 22.4 mm 10.5°
3
0%
05:00
11°
1016.5 hPa 22.4 mm 9.9°
2
0%
08:00
13°
1017.7 hPa 22.4 mm 11.1°
2
0%
11:00
18°
1018.1 hPa 22.4 mm 12.4°
2
0%
14:00
21°
1017.4 hPa 22.5 mm 11.2°
1
0%
17:00
21°
1016.7 hPa 22.5 mm 10.3°
2
1%
20:00
18°
1016.9 hPa 22.5 mm 12.3°
3
1%
23:00
16°
1017.4 hPa 22.5 mm 10.7°
2
1%
 06:10     21:20    Daglengte: 15:10 Donderdag 05 Aug
02:00
14°
1017.5 hPa 22.5 mm 10.3°
1
1%
05:00
13°
1016.8 hPa 22.5 mm 10.1°
1
1%
08:00
14°
1017.0 hPa 22.5 mm 10.9°
1
1%
11:00
19°
1017.1 hPa   12.1°
1
1%
14:00
22°
1016.2 hPa 44.9 mm 11.4°
1
1%
20:00
20°
1014.6 hPa 45.0 mm 13.1°
2
0%
 06:12     21:18    Daglengte: 15:06 Vrijdag 06 Aug
02:00
14°
1014.2 hPa 45.0 mm 11.5°
2
0%
08:00
15°
1013.3 hPa 45.0 mm 11.7°
1
0%
14:00
23°
1012.4 hPa 45.2 mm 12.3°
1
1%
20:00
20°
1011.5 hPa 45.6 mm 13.8°
3
1%
 06:14     21:16    Daglengte: 15:02 Zaterdag 07 Aug
02:00
16°
1011.4 hPa 45.6 mm 9.7°
3
1%
08:00
16°
1009.6 hPa 45.6 mm 12.0°
4
1%
14:00
21°
1007.9 hPa 46.6 mm 16.7°
8
1%
20:00
19°
1005.9 hPa 54.2 mm 16.7°
5
1%
 06:15     21:14    Daglengte: 14:59 Zondag 08 Aug
02:00
13°
1008.2 hPa 62.2 mm 12.2°
4
1%
08:00
15°
1012.1 hPa 0.5 mm 12.2°
4
60%
14:00
22°
1012.5 hPa 0.9 mm 12.9°
5
71%
20:00
19°
1012.8 hPa 1.1 mm 13.8°
3
64%
 06:17     21:13    Daglengte: 14:56 Maandag 09 Aug
02:00
15°
1014.1 hPa 0.4 mm 12.3°
3
55%
08:00
15°
1014.6 hPa 0.3 mm 12.9°
3
63%
14:00
22°
1015.9 hPa 0.6 mm 13.6°
4
62%
20:00
20°
1016.5 hPa 1.3 mm 14.0°
2
57%
 06:18     21:11    Daglengte: 14:53 Dinsdag 10 Aug
02:00
15°
1017.9 hPa 0.4 mm 12.2°
2
36%
08:00
15°
1018.0 hPa 0.1 mm 12.8°
3
37%
14:00
22°
1018.4 hPa 0.7 mm 13.7°
4
50%
20:00
20°
1018.0 hPa 0.5 mm 13.7°
2
50%
 06:20     21:09    Daglengte: 14:49 Woensdag 11 Aug
02:00
15°
1018.8 hPa 0.4 mm 12.1°
2
40%
08:00
16°
1018.2 hPa 0.6 mm 12.9°
3
43%
14:00
23°
1018.1 hPa 1.1 mm 14.0°
4
49%
20:00
21°
1017.4 hPa 0.6 mm 14.4°
2
46%
 06:21     21:07    Daglengte: 14:46 Donderdag 12 Aug
02:00
16°
1017.8 hPa 0.1 mm 12.7°
1
45%
08:00
16°
1017.3 hPa 0.4 mm 13.3°
2
52%
14:00
23°
1016.8 hPa 0.9 mm 14.3°
2
60%
20:00
20°
1016.7 hPa 1.6 mm 14.6°
1
69%
 06:23     21:05    Daglengte: 14:42 Vrijdag 13 Aug
02:00
15°
1017.2 hPa 0.7 mm 12.8°
1
61%
08:00
16°
1017.1 hPa 0.3 mm 13.0°
2
53%
  CAPE Lifted Index Hail Supercell Tornado SRH 3km CL BTM PRES CL TOP PRES Swiss DWD icon SMHI TS
 06:00     21:32    Daglengte: 15:32 Vandaag
12:00 85 J/kg 7.4 K 0 % 0 % 0 % 0 m²/s² 0 0 12.17 2
13:00 121 J/kg 6.8 K 0 % 0 % 0 % 0 m²/s² 0 0 11.33 3
14:00 105 J/kg 6.6 K 0 % 0 % 0 % 0 m²/s² 0 0 11.64 2
15:00 82 J/kg 6.5 K 0 % 0 % 0 % 0 m²/s² 0 0 11.3 2
16:00 70 J/kg 6.5 K 0 % 0 % 0 % 0 m²/s² 0 0 11.06 3
17:00 28 J/kg 6.8 K 0 % 0 % 0 % 0 m²/s² 0 0 11.27 3
18:00 19 J/kg 6.9 K 0 % 0 % 0 % 0 m²/s² 0 0 11.13 3
19:00 14 J/kg 6.8 K 0 % 0 % 0 % 0 m²/s² 0 0 10.64 2
20:00 4 J/kg 6.6 K 0 % 0 % 0 % 0 m²/s² 0 0 9.99 2
21:00 1 J/kg 6.6 K 0 % 0 % 0 % 0 m²/s² 0 0 9.48 2
22:00 0 J/kg 6.9 K 0 % 0 % 0 % 0 m²/s² 0 0 8.91 2
23:00 0 J/kg 7.0 K 0 % 0 % 0 % 0 m²/s² 0 0 8.65 3
 06:01     21:30    Daglengte: 15:29 Morgen
00:00 0 J/kg 7.8 K 0 % 0 % 0 % 0 m²/s² 0 0 9.63 3
01:00 0 J/kg 9.0 K 0 % 0 % 0 % 0 m²/s² 0 0 10.89 3
02:00 0 J/kg 10.1 K 0 % 0 % 0 % 0 m²/s² 0 0 12.05 1
03:00 0 J/kg 10.1 K 0 % 0 % 0 % 0 m²/s² 0 0 11.63 1
04:00 0 J/kg 9.3 K 0 % 0 % 0 % 0 m²/s² 0 0 10.95 1
05:00 0 J/kg 8.3 K 0 % 0 % 0 % 0 m²/s² 0 0 9.35 3
06:00 0 J/kg 6.0 K 0 % 0 % 0 % 0 m²/s² 0 0 6.99 3
07:00 0 J/kg 5.2 K 0 % 0 % 0 % 0 m²/s² 0 0 5.77 3
08:00 0 J/kg 5.0 K 0 % 0 % 0 % 0 m²/s² 0 0 5.3 3
09:00 0 J/kg 4.8 K 0 % 0 % 0 % 0 m²/s² 0 0 4.98 3
10:00 0 J/kg 4.2 K 0 % 0 % 0 % 0 m²/s² 0 0 4.62 3
11:00 0 J/kg 3.3 K 0 % 0 % 0 % 0 m²/s² 0 0 4.11 3
12:00 3 J/kg 1.2 K 0 % 0 % 0 % 0 m²/s² 0 0 2.46 3
13:00 11 J/kg 0.8 K 0 % 0 % 0 % 0 m²/s² 0 0 2.15 3
14:00 77 J/kg 0.4 K 0 % 0 % 0 % 0 m²/s² 0 0 2.11 3
15:00 132 J/kg 0.2 K 0 % 0 % 0 % 0 m²/s² 0 0 1.34 3
16:00 77 J/kg 0.8 K 0 % 0 % 0 % 0 m²/s² 0 0 2.03 3
17:00 31 J/kg 0.9 K 0 % 0 % 0 % 0 m²/s² 0 0 5.73 2
18:00 278 J/kg -1.0 K 0 % 0 % 0 % 0 m²/s² 0 0 3.83 2
19:00 398 J/kg -1.7 K 0 % 0 % 0 % 0 m²/s² 0 0 1.75 2
20:00 456 J/kg -1.9 K 0 % 0 % 0 % 0 m²/s² 0 0 1.46 3
21:00 576 J/kg -2.3 K 0 % 0 % 0 % 0 m²/s² 0 0 0.1 2
22:00 255 J/kg 0.1 K 0 % 0 % 0 % 0 m²/s² 0 0 1.66 2
23:00 58 J/kg 1.6 K 0 % 0 % 0 % 0 m²/s² 0 0 3.79 2
 06:03     21:28    Daglengte: 15:25 Zaterdag 31 Jul
00:00 24 J/kg 2.1 K 0 % 0 % 0 % 0 m²/s² 0 0 6.15 3
01:00 0 J/kg 1.6 K 0 % 0 % 0 % 0 m²/s² 0 0 4.36 2
02:00 0 J/kg 1.2 K 0 % 0 % 0 % 0 m²/s² 0 0 3.51 2
03:00 0 J/kg 1.0 K 0 % 0 % 0 % 0 m²/s² 0 0 2.5 2
04:00 0 J/kg 1.0 K 0 % 0 % 0 % 0 m²/s² 0 0 2.98 3
05:00 25 J/kg 0.7 K 0 % 0 % 0 % 0 m²/s² 0 0 2.74 3
06:00 0 J/kg 1.2 K 0 % 0 % 0 % 0 m²/s² 0 0 2.85 3
07:00 15 J/kg 0.9 K 0 % 0 % 0 % 0 m²/s² 0 0 2.73 3
08:00 90 J/kg 0.5 K 0 % 0 % 0 % 0 m²/s² 0 0 1.79 2
09:00 90 J/kg 0.6 K 0 % 0 % 0 % 0 m²/s² 0 0 1.83 3
10:00 75 J/kg 0.2 K 0 % 0 % 0 % 0 m²/s² 0 0 1.43 3
11:00 103 J/kg -0.3 K 0 % 0 % 0 % 0 m²/s² 0 0 0.54 3
12:00 392 J/kg -1.4 K 0 % 0 % 0 % 0 m²/s² 0 0 -0.77 3
13:00 472 J/kg -1.6 K 0 % 0 % 0 % 0 m²/s² 0 0 -0.79 80
14:00 383 J/kg -1.1 K 0 % 0 % 0 % 0 m²/s² 0 0 -0.17 61
15:00 451 J/kg -1.4 K 0 % 0 % 0 % 0 m²/s² 0 0 -0.68 3
16:00 401 J/kg -1.1 K 0 % 0 % 0 % 0 m²/s² 0 0 -0.38 3
17:00 422 J/kg -1.3 K 0 % 0 % 0 % 0 m²/s² 0 0 -0.43 3
18:00 305 J/kg -0.9 K 0 % 0 % 0 % 0 m²/s² 0 0 0.12 3
19:00 166 J/kg -0.5 K 0 % 0 % 0 % 0 m²/s² 0 0 0.34 3
20:00 332 J/kg -1.2 K 0 % 0 % 0 % 0 m²/s² 0 0 -0.54 3
21:00 328 J/kg -1.4 K 0 % 0 % 0 % 0 m²/s² 0 0 -0.65 2
22:00 222 J/kg -0.9 K 0 % 0 % 0 % 0 m²/s² 0 0 -0.51 1
23:00 77 J/kg -0.1 K 0 % 0 % 0 % 0 m²/s² 0 0 0.47 2
 06:04     21:27    Daglengte: 15:23 Zondag 01 Aug
00:00 74 J/kg 0.0 K 0 % 0 % 0 % 0 m²/s² 0 0 0.75 2
01:00 77 J/kg -0.6 K 0 % 0 % 0 % 0 m²/s² 0 0 0.33 2
02:00 0 J/kg -1.1 K 0 % 0 % 0 % 0 m²/s² 0 0 -0.08 2
03:00 0 J/kg -1.1 K 0 % 0 % 0 % 0 m²/s² 0 0 -0.41 3
04:00 0 J/kg -0.8 K 0 % 0 % 0 % 0 m²/s² 0 0 -0.59 3
05:00 0 J/kg -1.6 K 0 % 0 % 0 % 0 m²/s² 0 0 -1.48 3
06:00 0 J/kg -1.6 K 0 % 0 % 0 % 0 m²/s² 0 0 -1.03 3
07:00 0 J/kg -1.5 K 0 % 0 % 0 % 0 m²/s² 0 0 -0.72 3
08:00 0 J/kg -1.4 K 0 % 0 % 0 % 0 m²/s² 0 0 -1.37 3
09:00 1 J/kg -1.3 K 0 % 0 % 0 % 0 m²/s² 0 0 -1.09
10:00 0 J/kg -0.3 K 0 % 0 % 0 % 0 m²/s² 0 0 -0.21
11:00 54 J/kg -0.8 K 0 % 0 % 0 % 0 m²/s² 0 0 -0.62
Temp Baro Wind Neerslag
  EWN Forecast EWN WRFDA DWD ICON FMI HIRLAM MET Norway GFS
 06:00     21:32    Daglengte: 15:32 Vandaag
14:00 18.8° 1011.1 hPa 6.9 m/s 0.0 mm 19.0° 1010.4 hPa 7.8 m/s 0.0 mm 20.3° 1011.1 hPa 6.4 m/s 0.0 mm 18.1° 1011.6 hPa 6.5 m/s 0.0 mm 19.7° 1011.0 hPa 8.2 m/s
17:00 19.5° 1010.9 hPa 6.5 m/s 0.0 mm 20.9° 1010.0 hPa 7.0 m/s 0.0 mm 20.8° 1010.9 hPa 6.2 m/s 0.0 mm 18.7° 1011.4 hPa 6.3 m/s 0.0 mm 19.5° 1011.4 hPa 7.0 m/s
20:00 19.0° 1011.0 hPa 4.5 m/s 0.0 mm 19.8° 1010.0 hPa 4.7 m/s 0.0 mm 19.4° 1011.1 hPa 4.4 m/s 0.0 mm 18.3° 1011.7 hPa 3.7 m/s 0.0 mm 17.9° 1011.2 hPa 5.0 m/s
23:00 15.5° 1011.2 hPa 2.9 m/s 0.0 mm 13.9° 1010.2 hPa 3.0 m/s 0.0 mm 15.6° 1011.2 hPa 2.8 m/s 0.0 mm 15.3° 1012.0 hPa 2.1 m/s 0.0 mm 13.8° 1011.7 hPa 3.7 m/s
 06:01     21:30    Daglengte: 15:29 Morgen
02:00 13.8° 1010.7 hPa 3.1 m/s 0.0 mm 12.2° 1009.6 hPa 3.6 m/s 0.0 mm 13.9° 1010.8 hPa 2.9 m/s 0.0 mm 13.2° 1011.0 hPa 2.7 m/s 0.0 mm 12.5° 1011.0 hPa 3.5 m/s
05:00 13.0° 1009.7 hPa 2.8 m/s 0.0 mm 12.8° 1008.7 hPa 3.3 m/s 0.0 mm 12.8° 1010.2 hPa 2.6 m/s 0.0 mm 12.6° 1009.9 hPa 2.7 m/s 0.0 mm 12.1° 1010.1 hPa 3.1 m/s
08:00 14.5° 1009.2 hPa 2.5 m/s 0.0 mm 15.3° 1008.2 hPa 2.9 m/s 0.0 mm 14.6° 1009.4 hPa 2.4 m/s 0.0 mm 13.5° 1009.7 hPa 2.4 m/s 0.0 mm 14.7° 1009.4 hPa 2.6 m/s
11:00 18.0° 1008.0 hPa 3.5 m/s 0.0 mm 20.7° 1006.6 hPa 4.6 m/s 0.0 mm 18.6° 1008.5 hPa 3.6 m/s 0.0 mm 14.8° 1008.7 hPa 1.5 m/s 0.0 mm 19.9° 1008.3 hPa 4.6 m/s
14:00 21.6° 1006.1 hPa 5.5 m/s 0.0 mm 24.9° 1004.6 hPa 6.8 m/s 0.0 mm 22.0° 1006.5 hPa 5.7 m/s 0.0 mm 16.5° 1007.1 hPa 2.6 m/s 0.0 mm 23.6° 1006.5 hPa 7.1 m/s
17:00 21.6° 1004.9 hPa 5.5 m/s 0.0 mm 24.6° 1003.2 hPa 6.7 m/s 0.0 mm 21.7° 1005.4 hPa 5.8 m/s 0.0 mm 18.0° 1005.8 hPa 1.8 m/s 0.0 mm 21.5° 1005.7 hPa 7.0 m/s
20:00 19.8° 1004.7 hPa 4.9 m/s 0.0 mm 19.9° 1003.4 hPa 2.4 m/s 0.6 mm 20.2° 1005.2 hPa 5.3 m/s 0.0 mm 18.1° 1006.0 hPa 1.2 m/s 0.0 mm 18.8° 1005.3 hPa 4.4 m/s
23:00 17.0° 1005.1 hPa 5.7 m/s 0.0 mm 18.0° 1003.7 hPa 4.6 m/s 1.3 mm 16.8° 1005.2 hPa 5.6 m/s 0.0 mm 16.9° 1007.6 hPa 2.1 m/s 0.0 mm 15.3° 1005.2 hPa 5.5 m/s
 06:03     21:28    Daglengte: 15:25 Zaterdag 31 Jul
02:00 15.7° 1005.3 hPa 6.0 m/s 0.0 mm 15.0° 1002.4 hPa 6.0 m/s 1.6 mm 15.6° 1004.8 hPa 5.9 m/s 0.0 mm 15.7° 1008.4 hPa 2.6 m/s 0.0 mm 14.5° 1004.8 hPa 8.1 m/s
05:00 15.2° 1005.1 hPa 5.9 m/s 0.0 mm 15.3° 1001.6 hPa 8.0 m/s 1.6 mm 15.2° 1005.4 hPa 5.4 m/s 0.0 mm 15.3° 1004.0 hPa 8.2 m/s
08:00 15.4° 1006.1 hPa 6.4 m/s 0.0 mm 15.7° 1002.7 hPa 7.4 m/s 1.9 mm 15.4° 1006.3 hPa 5.5 m/s 0.0 mm 14.4° 1005.1 hPa 7.9 m/s
11:00 17.3° 1006.9 hPa 6.6 m/s 0.7 mm 16.5° 1004.4 hPa 7.5 m/s 3.5 mm 18.1° 1007.0 hPa 6.2 m/s 0.0 mm 16.0° 1006.3 hPa 8.0 m/s
14:00 18.2° 1007.6 hPa 6.3 m/s 1.5 mm 18.9° 1005.9 hPa 7.5 m/s 6.1 mm 17.5° 1007.6 hPa 5.0 m/s 0.5 mm 17.8° 1007.3 hPa 7.6 m/s
17:00 19.7° 1007.7 hPa 6.3 m/s 0.9 mm 20.7° 1006.3 hPa 6.7 m/s 8.2 mm 19.0° 1007.8 hPa 4.7 m/s 0.1 mm 18.4° 1008.5 hPa 6.9 m/s
20:00 18.8° 1007.7 hPa 4.8 m/s 0.0 mm 19.5° 1006.3 hPa 6.0 m/s 8.7 mm 18.7° 1007.7 hPa 3.7 m/s 0.0 mm 17.1° 1008.9 hPa 4.4 m/s
23:00 15.6° 1008.3 hPa 2.7 m/s 0.0 mm 14.9° 1007.5 hPa 2.9 m/s 8.7 mm 15.5° 1008.2 hPa 1.5 m/s 0.0 mm 13.3° 1009.8 hPa 2.6 m/s
 06:04     21:27    Daglengte: 15:23 Zondag 01 Aug
02:00 14.4° 1008.0 hPa 2.8 m/s 0.0 mm 13.6° 1006.9 hPa 2.9 m/s 8.8 mm 14.5° 1008.1 hPa 2.1 m/s 0.0 mm 12.6° 1010.4 hPa 1.9 m/s
05:00 14.8° 1007.4 hPa 2.6 m/s 0.0 mm 14.6° 1006.7 hPa 3.1 m/s 9.2 mm 14.8° 1007.6 hPa 2.5 m/s 0.0 mm 12.3° 1009.5 hPa 2.0 m/s
08:00 14.9° 1007.7 hPa 2.8 m/s 0.0 mm 13.9° 1006.5 hPa 3.3 m/s 15.8 mm 15.1° 1007.9 hPa 2.7 m/s 0.0 mm 14.6° 1009.8 hPa 2.6 m/s
11:00 15.1° 1007.5 hPa 2.3 m/s 62.8 mm 15.1° 1007.5 hPa 2.3 m/s 62.8 mm 16.2° 1010.3 hPa 3.0 m/s
14:00 17.8° 1008.0 hPa 3.6 m/s 85.6 mm 17.8° 1008.0 hPa 3.6 m/s 85.6 mm 18.0° 1010.3 hPa 3.3 m/s
17:00 19.3° 1010.1 hPa 2.1 m/s 11.2 mm 19.3° 1010.1 hPa 2.1 m/s 11.2 mm
20:00 18.3° 1010.0 hPa 1.7 m/s 13.7 mm 18.3° 1010.0 hPa 1.7 m/s 13.7 mm
23:00 14.2° 1011.1 hPa 2.1 m/s 14.0 mm 14.2° 1011.1 hPa 2.1 m/s 14.0 mm
 06:06     21:25    Daglengte: 15:19 Maandag 02 Aug
02:00 12.7° 1011.5 hPa 1.8 m/s 14.0 mm 12.7° 1011.5 hPa 1.8 m/s 14.0 mm
05:00 11.9° 1011.9 hPa 1.5 m/s 14.0 mm 11.9° 1011.9 hPa 1.5 m/s 14.0 mm
08:00 13.8° 1012.8 hPa 0.6 m/s 14.1 mm 13.8° 1012.8 hPa 0.6 m/s 14.1 mm
11:00 15.1° 1013.7 hPa 1.6 m/s 14.8 mm 15.1° 1013.7 hPa 1.6 m/s 14.8 mm
14:00 19.4° 1013.3 hPa 1.1 m/s 15.2 mm 19.4° 1013.3 hPa 1.1 m/s 15.2 mm
17:00 19.1° 1013.2 hPa 0.9 m/s 18.9 mm 19.1° 1013.2 hPa 0.9 m/s 18.9 mm
20:00 17.2° 1013.3 hPa 2.3 m/s 21.9 mm 17.2° 1013.3 hPa 2.3 m/s 21.9 mm
23:00 13.1° 1014.6 hPa 2.7 m/s 22.0 mm 13.1° 1014.6 hPa 2.7 m/s 22.0 mm
 06:07     21:23    Daglengte: 15:16 Dinsdag 03 Aug
02:00 13.3° 1015.0 hPa 2.4 m/s 22.0 mm 13.3° 1015.0 hPa 2.4 m/s 22.0 mm
05:00 13.0° 1015.2 hPa 1.6 m/s 22.0 mm 13.0° 1015.2 hPa 1.6 m/s 22.0 mm
08:00 14.0° 1015.9 hPa 1.4 m/s 22.0 mm 14.0° 1015.9 hPa 1.4 m/s 22.0 mm
11:00 17.4° 1016.2 hPa 1.8 m/s 22.0 mm 17.4° 1016.2 hPa 1.8 m/s 22.0 mm
14:00 20.1° 1015.5 hPa 2.3 m/s 22.1 mm 20.1° 1015.5 hPa 2.3 m/s 22.1 mm
17:00 20.6° 1014.7 hPa 3.2 m/s 22.2 mm 20.6° 1014.7 hPa 3.2 m/s 22.2 mm
20:00 17.3° 1015.3 hPa 3.7 m/s 22.4 mm 17.3° 1015.3 hPa 3.7 m/s 22.4 mm
23:00 12.8° 1016.5 hPa 3.1 m/s 22.4 mm 12.8° 1016.5 hPa 3.1 m/s 22.4 mm
 06:09     21:22    Daglengte: 15:13 Woensdag 04 Aug
02:00 11.6° 1016.9 hPa 2.7 m/s 22.4 mm 11.6° 1016.9 hPa 2.7 m/s 22.4 mm
05:00 10.9° 1016.5 hPa 2.3 m/s 22.4 mm 10.9° 1016.5 hPa 2.3 m/s 22.4 mm
08:00 13.2° 1017.7 hPa 1.9 m/s 22.4 mm 13.2° 1017.7 hPa 1.9 m/s 22.4 mm
11:00 17.8° 1018.1 hPa 2.3 m/s 22.4 mm 17.8° 1018.1 hPa 2.3 m/s 22.4 mm
14:00 20.8° 1017.4 hPa 1.5 m/s 22.5 mm 20.8° 1017.4 hPa 1.5 m/s 22.5 mm
17:00 21.1° 1016.7 hPa 1.6 m/s 22.5 mm 21.1° 1016.7 hPa 1.6 m/s 22.5 mm
20:00 18.0° 1016.9 hPa 2.7 m/s 22.5 mm 18.0° 1016.9 hPa 2.7 m/s 22.5 mm
23:00 16.3° 1017.4 hPa 2.4 m/s 22.5 mm 16.3° 1017.4 hPa 2.4 m/s 22.5 mm
 06:10     21:20    Daglengte: 15:10 Donderdag 05 Aug
02:00 14.4° 1017.5 hPa 1.5 m/s 22.5 mm 14.4° 1017.5 hPa 1.5 m/s 22.5 mm
05:00 13.1° 1016.8 hPa 1.5 m/s 22.5 mm 13.1° 1016.8 hPa 1.5 m/s 22.5 mm
08:00 14.5° 1017.0 hPa 1.4 m/s 22.5 mm 14.5° 1017.0 hPa 1.4 m/s 22.5 mm
11:00 19.4° 1017.1 hPa 0.6 m/s 22.5 mm 19.4° 1017.1 hPa 0.6 m/s 22.5 mm
14:00 22.3° 1016.2 hPa 0.5 m/s 22.5 mm 22.3° 1016.2 hPa 0.5 m/s 22.5 mm
20:00 19.8° 1014.6 hPa 2.0 m/s 22.5 mm 19.8° 1014.6 hPa 2.0 m/s 22.5 mm
 06:12     21:18    Daglengte: 15:06 Vrijdag 06 Aug
02:00 14.4° 1014.2 hPa 1.8 m/s 22.5 mm 14.4° 1014.2 hPa 1.8 m/s 22.5 mm
08:00 15.3° 1013.3 hPa 1.2 m/s 22.5 mm 15.3° 1013.3 hPa 1.2 m/s 22.5 mm
14:00 23.0° 1012.4 hPa 1.2 m/s 22.7 mm 23.0° 1012.4 hPa 1.2 m/s 22.7 mm
20:00 20.1° 1011.5 hPa 2.8 m/s 22.8 mm 20.1° 1011.5 hPa 2.8 m/s 22.8 mm
 06:14     21:16    Daglengte: 15:02 Zaterdag 07 Aug
02:00 15.7° 1011.4 hPa 3.3 m/s 22.8 mm 15.7° 1011.4 hPa 3.3 m/s 22.8 mm
08:00 16.0° 1009.6 hPa 3.9 m/s 22.8 mm 16.0° 1009.6 hPa 3.9 m/s 22.8 mm
14:00 21.0° 1007.9 hPa 7.8 m/s 23.7 mm 21.0° 1007.9 hPa 7.8 m/s 23.7 mm
20:00 18.6° 1005.9 hPa 5.4 m/s 29.2 mm 18.6° 1005.9 hPa 5.4 m/s 29.2 mm
 06:15     21:14    Daglengte: 14:59 Zondag 08 Aug
02:00 13.3° 1008.2 hPa 4.1 m/s 31.1 mm 13.3° 1008.2 hPa 4.1 m/s 31.1 mm
08:00 14.9° 1012.1 hPa 3.8 m/s 0.5 mm
14:00 21.8° 1012.5 hPa 4.9 m/s 0.9 mm
20:00 19.3° 1012.8 hPa 2.8 m/s 1.1 mm
 06:17     21:13    Daglengte: 14:56 Maandag 09 Aug
02:00 14.9° 1014.1 hPa 2.5 m/s 0.4 mm
08:00 15.4° 1014.6 hPa 3.2 m/s 0.3 mm
14:00 21.8° 1015.9 hPa 4.3 m/s 0.6 mm
20:00 19.7° 1016.5 hPa 2.3 m/s 1.3 mm
 06:18     21:11    Daglengte: 14:53 Dinsdag 10 Aug
02:00 14.6° 1017.9 hPa 2.3 m/s 0.4 mm
08:00 15.4° 1018.0 hPa 2.9 m/s 0.1 mm
14:00 22.3° 1018.4 hPa 4.3 m/s 0.7 mm
20:00 20.2° 1018.0 hPa 2.4 m/s 0.5 mm
 06:20     21:09    Daglengte: 14:49 Woensdag 11 Aug
02:00 15.0° 1018.8 hPa 1.7 m/s 0.4 mm
08:00 15.8° 1018.2 hPa 2.9 m/s 0.6 mm
14:00 22.9° 1018.1 hPa 3.5 m/s 1.1 mm
20:00 20.8° 1017.4 hPa 2.0 m/s 0.6 mm
 06:21     21:07    Daglengte: 14:46 Donderdag 12 Aug
02:00 15.9° 1017.8 hPa 1.3 m/s 0.1 mm
08:00 16.2° 1017.3 hPa 1.7 m/s 0.4 mm
14:00 22.9° 1016.8 hPa 2.3 m/s 0.9 mm
20:00 20.1° 1016.7 hPa 1.2 m/s 1.6 mm
 06:23     21:05    Daglengte: 14:42 Vrijdag 13 Aug
02:00 15.5° 1017.2 hPa 1.4 m/s 0.7 mm
08:00 15.7° 1017.1 hPa 1.8 m/s 0.3 mm
FMI Hirlam - 7.5 km EWN WRFDA - 12 km DWD ICON - 7 km GFS - 25 km Basiskaart






























































Updatetijd (Europe/Amsterdam) Resolutie Lengte Stap
FMI Hirlam 07:00, 13:00, 19:00, 01:00 7.5 km 49h 1h
EWN WRFDA 10:15, 16:15, 22:15, 04:15 12 km 73h 1h
DWD ICON 06:15, 12:15, 18:15, 00:15 7 km 75h 1h
GFS 08:15, 14:15, 20:15, 02:15 25 km 237h 3h
30+ mm
25-30 mm
20-25 mm
15-20 mm
10-15 mm
6-10 mm
4-6 mm
2-4 mm
1-2 mm
0.5-1 mm
0.2-0.5 mm
0.1-0.2 mm
30+ mm
25-30 mm
20-25 mm
15-20 mm
10-15 mm
6-10 mm
4-6 mm
2-4 mm
1-2 mm
0.5-1 mm
0.2-0.5 mm
0.1-0.2 mm
Sneeuwval
Natte sneeuw
Hagel
Vorst
30+ mm
25-30 mm
20-25 mm
15-20 mm
10-15 mm
6-10 mm
4-6 mm
2-4 mm
1-2 mm
0.5-1 mm
0.2-0.5 mm
0.1-0.2 mm
Sneeuwval
Natte sneeuw
Hagel
Vorst
Onweer
50 mm
40 mm
30 mm
26 mm
22 mm
18 mm
14 mm
10 mm
9 mm
8 mm
7 mm
6 mm
5 mm
4.5 mm
4 mm
3.5 mm
3 mm
2.5 mm
2 mm
1.5 mm
1 mm
0.8 mm
0.6 mm
0.4 mm
0.2 mm
0.05 mm
35°
30°
25°
20°
15°
10°
-5°
-10°
-15°
-20°
-25°
-30°
-35°
33> m/s
29 m/s
25 m/s
21 m/s
17 m/s
14 m/s
11 m/s
8 m/s
5 m/s
3 m/s
0 m/s
2600 J/kg
2400 J/kg
2200 J/kg
2000 J/kg
1800 J/kg
1600 J/kg
1400 J/kg
1200 J/kg
1000 J/kg
800 J/kg
600 J/kg
400 J/kg
200 J/kg
70 dBZ
65 dBZ
60 dBZ
55 dBZ
50 dBZ
45 dBZ
40 dBZ
35 dBZ
30 dBZ
25 dBZ
20 dBZ
15 dBZ
10 dBZ
5 dBZ
-1 K
-2 K
-3 K
-4 K
-5 K
-6 K
-7 K
-8 K
-9 K
950 m²/s²
900 m²/s²
850 m²/s²
800 m²/s²
750 m²/s²
700 m²/s²
650 m²/s²
600 m²/s²
550 m²/s²
500 m²/s²
450 m²/s²
400 m²/s²
350 m²/s²
300 m²/s²
250 m²/s²
200 m²/s²
150 m²/s²
100 m²/s²
46 m/s
44 m/s
42 m/s
40 m/s
38 m/s
36 m/s
34 m/s
32 m/s
30 m/s
28 m/s
26 m/s
24 m/s
22 m/s
20 m/s
16 m/s
12 m/s
8 m/s
4 m/s
30 m/s
28 m/s
26 m/s
24 m/s
22 m/s
20 m/s
18 m/s
16 m/s
14 m/s
12 m/s
10 m/s
8 m/s
6 m/s
4 m/s
2 m/s
3.0
2.8
2.6
2.4
2.2
2.0
1.8
1.6
1.4
1.2
1.0
0.8
0.6
0.4
0.2
15
14
13
12
11
10
9
8
7
6
5
4
3
2
1
90%
80%
70%
60%
50%
40%
30%
20%
10%
42
40
38
36
34
32
30
28
26
24
22
20
18
16
14
12
90+ cm
80-90 cm
70-80 cm
60-70 cm
50-60 cm
40-50 cm
30-40 cm
20-30 cm
10-20 cm
1-10 cm
Sneeuwval
Natte sneeuw
Regen
>120 mm
115 mm
110 mm
105 mm
100 mm
95 mm
90 mm
85 mm
80 mm
75 mm
70 mm
65 mm
60 mm
55 mm
50 mm
45 mm
45 mm
40 mm
35 mm
30 mm
25 mm
20 mm
15 mm
10 mm
5 mm
0.1 mm
960 hPa
880 hPa
800 hPa
720 hPa
640 hPa
560 hPa
584 gpdm
568 gpdm
552 gpdm
536 gpdm
520 gpdm
504 gpdm
488 gpdm
Extreem zwaar Noodweer Kans op onweer
15% 15% 5% 50% 15%

Dag




Kaart






35°
30°
25°
20°
15°
10°
-5°
-10°
-15°
-20°
-25°